Location: ShareBrained
(45.5589°N, 122.6491°W)
Time: 03:33:55
(UTC-07:00)

NOAA 19 - Visible Passes

Search period start: 16 June 2025 00:00
Search period end: 26 June 2025 00:00
Orbit: 838 x 857 km, 99.0° (Epoch: 15 June)

Date Brightness Start Highest point End Pass type
(mag) Time Alt. Az. Time Alt. Az. Time Alt. Az.
16 Jun 5.3 22:00:35 10° SSE 22:05:59 67° ENE 22:11:26 10° N visible
16 Jun 7.3 23:43:23 10° SW 23:47:06 18° W 23:50:50 10° NW visible
17 Jun 5.6 21:48:04 10° SE 21:53:22 53° ENE 21:58:41 10° N visible
17 Jun 7.0 23:29:58 10° SW 23:34:17 24° W 23:38:37 10° NW visible
18 Jun 5.8 21:35:39 10° SE 21:40:45 42° ENE 21:45:53 10° N visible
18 Jun 6.7 23:16:45 10° SSW 23:21:28 30° W 23:26:16 10° NW visible
19 Jun 6.3 23:03:49 11° SSW 23:08:42 38° W 23:13:49 10° NNW visible
20 Jun 5.9 22:50:58 11° S 22:55:58 49° W 23:01:18 10° NNW visible
21 Jun 5.6 22:38:07 11° S 22:43:14 62° WSW 22:48:42 10° NNW visible
22 Jun 5.3 22:25:16 11° SSE 22:30:33 79° WSW 22:36:05 10° NNW visible
23 Jun 7.7 00:10:32 10° WSW 00:12:02 11° W 00:13:32 10° WNW visible
23 Jun 5.2 22:12:26 10° SSE 22:17:52 82° ENE 22:23:24 10° NNW visible
23 Jun 7.5 23:56:11 10° WSW 23:59:09 15° W 00:02:09 10° NW visible
24 Jun 5.3 21:59:49 10° SSE 22:05:14 65° ENE 22:10:41 10° N visible
24 Jun 7.3 23:42:30 10° SW 23:46:19 19° W 23:50:09 10° NW visible
25 Jun 5.6 21:47:19 10° SE 21:52:36 52° ENE 21:57:56 10° N visible
25 Jun 7.0 23:29:07 10° SSW 23:33:29 24° W 23:37:55 10° NW visible
